Regional Weather Roundup
Issued by NWS

Home | Current Version | Previous Version | Graphics & Text | Print | Product List | Glossary On
Versions: 1 2 3 4 5 6 7 8 9 10 11 12 13 14 15 16 17 18 19 20 21 22 23 24 25 26 27 28 29 30 31 32 33 34 35 36 37 38 39 40 41 42 43 44 45 46 47 48 49 50
000
ASUS43 KOAX 111002
RWRNE

WEATHER ROUNDUP FOR NEBRASKA
NATIONAL WEATHER SERVICE OMAHA NE
400 AM CST MON DEC 11 2017

NOTES: SATELLITE DATA IS BEING USED TO AUGMENT CLOUD COVER ABOVE
       12000 FEET.
       "FAIR" INDICATES FEW OR NO CLOUDS BELOW 12,000 FEET WITH NO
       SIGNIFICANT WEATHER AND/OR OBSTRUCTIONS TO VISIBILITY.


NEZ001>004-019>022-054>056-111100-
NEBRASKA PANHANDLE

CITY           SKY/WX    TMP DP  RH WIND       PRES   REMARKS
SCOTTSBLUFF    CLOUDY    29  11  47 NW7       30.27F WCI  22
ALLIANCE       CLOUDY    37  12  35 W15       30.21S WCI  28
CHADRON        CLOUDY    41  15  35 W15       30.22S
GORDON         FAIR      39  18  43 W6        30.17S WCI  35
KIMBALL        CLOUDY    39   5  24 NW14      30.28F WCI  31
SIDNEY         CLOUDY    37   6  27 W13       30.25F WCI  29
$$

NEZ057>060-069>072-079>082-111100-
SOUTHWEST NEBRASKA

CITY           SKY/WX    TMP DP  RH WIND       PRES   REMARKS
NORTH PLATTE   CLOUDY    26  16  65 NW9       30.15R WCI  17
IMPERIAL       CLEAR     39   7  26 W15       30.21F WCI  31
LEXINGTON      CLEAR     30  16  56 NW10      30.12S WCI  21
MCCOOK         CLEAR     35  11  36 NW13      30.17F WCI  26
OGALLALA       CLEAR     34  11  39 W5        30.19S WCI  29
$$

NEZ005>010-023>029-035>040-094-111100-
NORTH CENTRAL NEBRASKA

CITY           SKY/WX    TMP DP  RH WIND       PRES   REMARKS
VALENTINE      CLOUDY    44  18  35 W14       30.08R
AINSWORTH      CLOUDY    45  19  34 NW16G22   30.07R
BROKEN BOW     CLOUDY    43  13  29 NW20G29   30.09R
O`NEILL        CLOUDY    46  19  34 W15G25    29.99S
ORD            CLEAR     49  15  25 NW24G35   30.03F
THEDFORD       CLOUDY    42  17  35 W13       30.13S
$$

NEZ041-046>049-061>064-073>077-083>087-111100-
SOUTH CENTRAL NEBRASKA

CITY           SKY/WX    TMP DP  RH WIND       PRES   REMARKS
GRAND ISLAND   CLOUDY    38  15  39 W15       30.05S WCI  29
AURORA         CLOUDY    37  14  39 W16       30.03S WCI  27
HASTINGS       CLOUDY    36  12  37 W12       30.06F WCI  28
HEBRON         CLEAR     36  14  40 W7        30.05F WCI  30
HOLDREGE       CLOUDY    35  14  42 W12       30.11S WCI  26
KEARNEY        CLOUDY    40  12  32 W13       30.08F WCI  32
$$

NEZ011>018-030>034-042>045-111100-
NORTHEAST NEBRASKA

CITY           SKY/WX    TMP DP  RH WIND       PRES   REMARKS
NORFOLK        CLEAR     41  18  39 W16       29.93F
ALBION         CLEAR     50  16  25 NW20G25   29.98F
BLAIR          PTCLDY    40  20  46 W8        29.93F WCI  34
COLUMBUS       CLOUDY    35  16  45 W8        29.98F WCI  29
FREMONT        CLOUDY    37  19  46 W10       29.95F WCI  30
TEKAMAH        CLOUDY    38  18  44 W8        29.93F WCI  32
WAYNE          CLEAR     41  15  34 W10       29.92S
$$

NEZ050>053-065>068-078-088>093-111100-
SOUTHEAST NEBRASKA

CITY           SKY/WX    TMP DP  RH WIND       PRES   REMARKS
LINCOLN        PTCLDY    40  16  37 VRB3      29.99F
OMAHA EPPLEY   MOCLDY    36  21  54 SE3       29.93F
BEATRICE       CLOUDY    31  17  56 SW5       30.00F WCI  26
FALLS CITY       N/A     39  18  42 W13       29.97F WCI  31
NEBRASKA CITY  PTCLDY    39  19  45 W15       29.95F WCI  30
PLATTSMOUTH    PTCLDY    42  19  38 W8        29.94F
$$

NEZ044-045-051>053-067-111100-
OMAHA AREA

CITY           SKY/WX    TMP DP  RH WIND       PRES   REMARKS
OMAHA EPPLEY   MOCLDY    36  21  54 SE3       29.93F
BLAIR          PTCLDY    40  20  46 W8        29.93F WCI  34
FREMONT        CLOUDY    37  19  46 W10       29.95F WCI  30
MILLARD        CLOUDY    40  21  46 W5        29.95F
OFFUTT AFB     MOCLDY    37  20  51 W9        29.94F WCI  30
PLATTSMOUTH    PTCLDY    42  19  38 W8        29.94F
WAHOO          FAIR      42  17  37 W14       29.95F
$$




USA.gov is the U.S. government's official web portal to all federal, state and local government web resources and services.